Time,TemperatureF,DewpointF,PressureIn,WindDirection,WindDirectionDegrees,WindSpeedMPH,WindSpeedGustMPH,Humidity,HourlyPrecipIn,Conditions,Clouds,dailyrainin,SoftwareType,DateUTC
2013-10-22 00:14:00,55.0,49.0,30.04,SSE,166,0.0,3.0,80,0.00,,,0.00,,2013-10-22 04:14:00,
2013-10-22 00:25:00,55.0,49.0,30.03,SW,230,1.0,4.0,81,0.00,,,0.00,,2013-10-22 04:25:00,
2013-10-22 00:43:00,55.0,50.0,30.03,SSW,208,1.0,5.0,82,0.00,,,0.00,,2013-10-22 04:43:00,
2013-10-22 00:55:00,55.0,49.0,30.03,SE,141,1.0,3.0,81,0.00,,,0.00,,2013-10-22 04:55:00,
2013-10-22 01:13:00,56.0,51.0,30.03,SE,140,0.0,2.0,82,0.00,,,0.00,,2013-10-22 05:13:00,
2013-10-22 01:23:00,56.0,51.0,30.02,SSW,201,1.0,2.0,82,0.00,,,0.00,,2013-10-22 05:23:00,
2013-10-22 01:43:00,55.0,50.0,30.02,SW,230,0.0,2.0,83,0.00,,,0.00,,2013-10-22 05:43:00,
2013-10-22 01:53:00,55.0,50.0,30.01,SSE,157,0.0,2.0,83,0.00,,,0.00,,2013-10-22 05:53:00,
2013-10-22 02:12:00,56.0,51.0,30.01,SW,217,0.0,2.0,83,0.00,,,0.00,,2013-10-22 06:12:00,
2013-10-22 02:22:00,56.0,51.0,30.01,SW,216,1.0,3.0,82,0.00,,,0.00,,2013-10-22 06:22:00,
2013-10-22 02:43:00,56.0,50.0,30.01,SSW,198,1.0,3.0,81,0.00,,,0.00,,2013-10-22 06:43:00,
2013-10-22 02:54:00,56.0,50.0,30.00,SSE,167,0.0,3.0,81,0.00,,,0.00,,2013-10-22 06:54:00,
2013-10-22 03:12:00,56.0,51.0,29.99,SSE,168,0.0,2.0,82,0.00,,,0.00,,2013-10-22 07:12:00,
2013-10-22 03:23:00,55.0,50.0,29.98,SSW,192,0.0,3.0,84,0.00,,,0.00,,2013-10-22 07:23:00,
2013-10-22 03:42:00,55.0,51.0,29.97,SW,224,0.0,2.0,85,0.00,,,0.00,,2013-10-22 07:42:00,
2013-10-22 03:52:00,55.0,51.0,29.96,SSW,199,0.0,2.0,85,0.00,,,0.00,,2013-10-22 07:52:00,
2013-10-22 04:12:00,55.0,51.0,29.96,SW,236,0.0,2.0,86,0.00,,,0.00,,2013-10-22 08:12:00,
2013-10-22 04:22:00,55.0,51.0,29.95,South,187,0.0,2.0,86,0.00,,,0.00,,2013-10-22 08:22:00,
2013-10-22 04:42:00,55.0,51.0,29.96,WSW,240,0.0,2.0,87,0.00,,,0.00,,2013-10-22 08:42:00,
2013-10-22 04:52:00,55.0,52.0,29.96,SW,217,0.0,2.0,88,0.00,,,0.00,,2013-10-22 08:52:00,
2013-10-22 05:11:00,56.0,52.0,29.96,SW,220,0.0,2.0,88,0.00,,,0.00,,2013-10-22 09:11:00,
2013-10-22 05:22:00,56.0,53.0,29.95,SW,218,0.0,2.0,89,0.00,,,0.00,,2013-10-22 09:22:00,
2013-10-22 05:43:00,56.0,53.0,29.94,SE,131,1.0,3.0,89,0.00,,,0.00,,2013-10-22 09:43:00,
2013-10-22 05:54:00,56.0,53.0,29.94,SSW,207,0.0,2.0,89,0.00,,,0.00,,2013-10-22 09:54:00,
2013-10-22 06:13:00,56.0,53.0,29.93,SW,236,0.0,1.0,90,0.00,,,0.00,,2013-10-22 10:13:00,
2013-10-22 06:23:00,55.0,52.0,29.94,SW,226,0.0,0.0,90,0.00,,,0.00,,2013-10-22 10:23:00,
2013-10-22 06:43:00,55.0,52.0,29.93,SSW,196,0.0,0.0,91,0.00,,,0.00,,2013-10-22 10:43:00,
2013-10-22 06:54:00,55.0,52.0,29.93,SW,223,0.0,1.0,91,0.00,,,0.00,,2013-10-22 10:54:00,
2013-10-22 07:12:00,55.0,52.0,29.92,SW,233,0.0,1.0,91,0.00,,,0.00,,2013-10-22 11:12:00,
2013-10-22 07:22:00,54.0,51.0,29.92,SSE,158,0.0,3.0,91,0.00,,,0.00,,2013-10-22 11:22:00,
2013-10-22 07:33:00,54.0,51.0,29.92,SSE,158,0.0,3.0,91,0.00,,,0.00,,2013-10-22 11:33:00,
2013-10-22 07:42:00,54.0,51.0,29.92,SSE,158,0.0,3.0,91,0.00,,,0.00,,2013-10-22 11:42:00,
2013-10-22 07:53:00,55.0,52.0,29.91,SW,234,0.0,2.0,91,0.00,,,0.00,,2013-10-22 11:53:00,
2013-10-22 08:11:00,55.0,52.0,29.91,SSW,210,0.0,2.0,91,0.00,,,0.00,,2013-10-22 12:11:00,
2013-10-22 08:22:00,56.0,52.0,29.91,SW,227,1.0,4.0,88,0.00,,,0.00,,2013-10-22 12:22:00,
2013-10-22 08:42:00,58.0,53.0,29.91,SW,233,1.0,4.0,84,0.00,,,0.00,,2013-10-22 12:42:00,
2013-10-22 08:52:00,59.0,54.0,29.91,SW,227,1.0,5.0,82,0.00,,,0.00,,2013-10-22 12:52:00,
2013-10-22 09:12:00,60.0,54.0,29.90,SSE,166,3.0,7.0,80,0.00,,,0.00,,2013-10-22 13:12:00,
2013-10-22 09:22:00,61.0,54.0,29.89,SSE,158,3.0,8.0,77,0.00,,,0.00,,2013-10-22 13:22:00,
2013-10-22 09:42:00,62.0,55.0,29.89,South,186,3.0,7.0,77,0.00,,,0.00,,2013-10-22 13:42:00,
2013-10-22 09:53:00,62.0,54.0,29.88,West,268,1.0,6.0,76,0.00,,,0.00,,2013-10-22 13:53:00,
2013-10-22 10:12:00,63.0,55.0,29.88,East,98,1.0,9.0,75,0.00,,,0.00,,2013-10-22 14:12:00,
2013-10-22 10:21:00,64.0,55.0,29.88,SW,229,2.0,7.0,73,0.00,,,0.00,,2013-10-22 14:21:00,
2013-10-22 10:42:00,64.0,53.0,29.87,ESE,120,3.0,11.0,68,0.00,,,0.00,,2013-10-22 14:42:00,
2013-10-22 10:52:00,64.0,52.0,29.86,WSW,256,6.0,11.0,66,0.00,,,0.00,,2013-10-22 14:52:00,
2013-10-22 11:12:00,64.0,52.0,29.86,SE,143,6.0,12.0,65,0.00,,,0.00,,2013-10-22 15:12:00,
2013-10-22 11:22:00,65.0,53.0,29.85,SW,236,3.0,10.0,64,0.00,,,0.00,,2013-10-22 15:22:00,
2013-10-22 11:43:00,65.0,52.0,29.85,SW,217,3.0,11.0,63,0.00,,,0.00,,2013-10-22 15:43:00,
2013-10-22 11:54:00,65.0,50.0,29.85,South,170,6.0,11.0,58,0.00,,,0.00,,2013-10-22 15:54:00,
2013-10-22 12:13:00,66.0,48.0,29.85,SW,232,5.0,11.0,53,0.00,,,0.00,,2013-10-22 16:13:00,
2013-10-22 12:23:00,67.0,48.0,29.84,SSE,158,6.0,11.0,51,0.00,,,0.00,,2013-10-22 16:23:00,
2013-10-22 12:43:00,67.0,49.0,29.83,South,191,5.0,12.0,52,0.00,,,0.00,,2013-10-22 16:43:00,
2013-10-22 12:53:00,68.0,49.0,29.82,South,184,3.0,12.0,50,0.00,,,0.00,,2013-10-22 16:53:00,
2013-10-22 13:12:00,67.0,49.0,29.81,SSW,211,5.0,12.0,52,0.00,,,0.00,,2013-10-22 17:12:00,
2013-10-22 13:22:00,67.0,49.0,29.80,WSW,240,3.0,11.0,53,0.00,,,0.00,,2013-10-22 17:22:00,
2013-10-22 13:43:00,67.0,50.0,29.80,ESE,120,7.0,15.0,54,0.00,,,0.00,,2013-10-22 17:43:00,
2013-10-22 13:53:00,67.0,52.0,29.79,SW,229,6.0,11.0,58,0.00,,,0.00,,2013-10-22 17:53:00,
2013-10-22 14:12:00,67.0,52.0,29.78,South,171,4.0,12.0,59,0.00,,,0.00,,2013-10-22 18:12:00,
2013-10-22 14:22:00,67.0,52.0,29.78,SSW,193,7.0,15.0,59,0.00,,,0.00,,2013-10-22 18:22:00,
2013-10-22 14:42:00,67.0,52.0,29.78,SSE,158,5.0,12.0,59,0.00,,,0.00,,2013-10-22 18:42:00,
2013-10-22 14:52:00,67.0,52.0,29.77,SSE,154,4.0,8.0,59,0.00,,,0.00,,2013-10-22 18:52:00,
2013-10-22 15:12:00,66.0,52.0,29.78,SW,221,4.0,10.0,60,0.00,,,0.00,,2013-10-22 19:12:00,
2013-10-22 15:22:00,65.0,52.0,29.78,West,259,5.0,11.0,62,0.00,,,0.00,,2013-10-22 19:22:00,
2013-10-22 15:42:00,65.0,52.0,29.78,SSW,203,4.0,11.0,63,0.00,,,0.00,,2013-10-22 19:42:00,
2013-10-22 15:53:00,64.0,52.0,29.78,SSE,167,5.0,15.0,66,0.00,,,0.00,,2013-10-22 19:53:00,
2013-10-22 16:11:00,64.0,52.0,29.78,SW,230,4.0,12.0,66,0.00,,,0.00,,2013-10-22 20:11:00,
2013-10-22 16:22:00,64.0,53.0,29.78,SSE,148,4.0,8.0,68,0.00,,,0.00,,2013-10-22 20:22:00,
2013-10-22 16:43:00,63.0,51.0,29.78,South,181,5.0,10.0,66,0.00,,,0.00,,2013-10-22 20:43:00,
2013-10-22 16:52:00,64.0,52.0,29.78,SW,235,3.0,8.0,65,0.00,,,0.00,,2013-10-22 20:52:00,
2013-10-22 17:12:00,63.0,51.0,29.78,SW,231,3.0,8.0,65,0.00,,,0.00,,2013-10-22 21:12:00,
2013-10-22 17:23:00,63.0,51.0,29.76,SE,145,2.0,3.0,66,0.00,,,0.00,,2013-10-22 21:23:00,
2013-10-22 17:44:00,63.0,52.0,29.76,SSE,162,1.0,3.0,68,0.00,,,0.00,,2013-10-22 21:44:00,
2013-10-22 17:54:00,62.0,53.0,29.76,ESE,116,2.0,5.0,73,0.00,,,0.00,,2013-10-22 21:54:00,
2013-10-22 18:14:00,62.0,54.0,29.76,SSE,157,2.0,4.0,74,0.00,,,0.00,,2013-10-22 22:14:00,
2013-10-22 18:24:00,62.0,54.0,29.78,SW,222,2.0,5.0,74,0.00,,,0.00,,2013-10-22 22:24:00,
2013-10-22 18:44:00,61.0,53.0,29.78,WSW,248,1.0,3.0,75,0.00,,,0.00,,2013-10-22 22:44:00,
2013-10-22 18:54:00,61.0,53.0,29.78,SW,224,1.0,3.0,76,0.00,,,0.00,,2013-10-22 22:54:00,
2013-10-22 19:12:00,60.0,53.0,29.78,WSW,251,0.0,3.0,77,0.00,,,0.00,,2013-10-22 23:12:00,
2013-10-22 19:23:00,59.0,52.0,29.78,WSW,250,0.0,2.0,77,0.00,,,0.00,,2013-10-22 23:23:00,
2013-10-22 19:43:00,59.0,50.0,29.78,WSW,246,2.0,4.0,72,0.00,,,0.00,,2013-10-22 23:43:00,
2013-10-22 19:53:00,60.0,49.0,29.78,SW,224,3.0,6.0,67,0.00,,,0.00,,2013-10-22 23:53:00,
2013-10-22 20:11:00,59.0,49.0,29.78,WSW,242,3.0,8.0,69,0.00,,,0.00,,2013-10-23 00:11:00,
2013-10-22 20:22:00,59.0,48.0,29.79,SW,223,2.0,9.0,67,0.00,,,0.00,,2013-10-23 00:22:00,
2013-10-22 20:42:00,58.0,47.0,29.79,WSW,237,3.0,7.0,68,0.00,,,0.00,,2013-10-23 00:42:00,
2013-10-22 20:52:00,57.0,47.0,29.79,West,262,2.0,5.0,70,0.00,,,0.00,,2013-10-23 00:52:00,
2013-10-22 21:11:00,57.0,48.0,29.80,WSW,240,2.0,4.0,71,0.00,,,0.00,,2013-10-23 01:11:00,
2013-10-22 21:23:00,56.0,47.0,29.80,SW,226,1.0,3.0,72,0.00,,,0.00,,2013-10-23 01:23:00,
2013-10-22 21:42:00,56.0,47.0,29.81,SW,224,2.0,4.0,72,0.00,,,0.00,,2013-10-23 01:42:00,
2013-10-22 21:52:00,56.0,47.0,29.81,WSW,245,2.0,5.0,73,0.00,,,0.00,,2013-10-23 01:52:00,
2013-10-22 22:12:00,56.0,48.0,29.81,WSW,252,2.0,7.0,75,0.00,,,0.00,,2013-10-23 02:12:00,
2013-10-22 22:22:00,56.0,49.0,29.81,SSW,198,2.0,4.0,77,0.00,,,0.00,,2013-10-23 02:22:00,
2013-10-22 22:42:00,56.0,49.0,29.81,SW,236,2.0,5.0,76,0.00,,,0.00,,2013-10-23 02:42:00,
2013-10-22 22:54:00,56.0,48.0,29.81,SW,224,2.0,5.0,75,0.00,,,0.00,,2013-10-23 02:54:00,
2013-10-22 23:12:00,56.0,49.0,29.82,NW,304,4.0,7.0,76,0.00,,,0.00,,2013-10-23 03:12:00,
2013-10-22 23:22:00,56.0,48.0,29.82,NNW,342,3.0,8.0,74,0.00,,,0.00,,2013-10-23 03:22:00,
2013-10-22 23:44:00,55.0,46.0,29.82,NNE,23,2.0,8.0,71,0.00,,,0.00,,2013-10-23 03:44:00,
2013-10-22 23:55:00,55.0,46.0,29.82,NNE,17,1.0,4.0,72,0.00,,,0.00,,2013-10-23 03:55:00,